Location: Unspecified
(49.2170°N, 0.0000°E)
Time: 15:26:09
(UTC+00:00)

Tiros 1 despin weight - Pass Details

Date: 21 January 2021
Orbit: 593 x 642 km, 48.2° (Epoch: 07 March)

Event Time Altitude Azimuth Distance (km) Brightness Sun altitude
Rises 16:04:50 0° 235° (SW) 2,871 ? 3.8°
Reaches altitude 10° 16:07:13 10° 229° (SW) 1,960 ? 3.5°
Maximum altitude 16:11:30 45° 157° (SSE) 830 ? 2.9°
Drops below altitude 10° 16:15:44 10° 85° (E) 1,941 ? 2.4°
Sets 16:18:05 0° 79° (ENE) 2,839 ? 2.1°
